Location: Proctor
(47.8934°N, 114.3048°W)
Time: 08:25:32
(UTC+00:00)

Vanguard 2 Rocket - Pass Details

Date: 21 June 2024
Orbit: 555 x 3303 km, 32.9° (Epoch: 13 July)

Event Time Altitude Azimuth Distance (km) Brightness Sun altitude
Exits shadow 09:55:47 14° 213° (SSW) 5,798 10.3 -12.4°
Maximum altitude 10:11:06 38° 158° (SSE) 4,253 10.0 -10.9°
Drops below altitude 10° 10:26:16 10° 98° (E) 5,424 11.3 -9.4°
Sets 10:30:17 0° 91° (E) 6,120 11.7 -9.0°
